• In Österreich
  • Länderverzeichnis
  • Für 7 Tage
  • Wassertemperatur
  • Satellitenkarten
  • Wetterkarte
  • News
  • Widgets
  • user-avatar
    Anmelden

    Stündliche Wetter Ordino

    Heute, 25 Mai, Freitag

    Zeit Temperatur Niederschläge Wind Luftdruck Luftfeuchtigkeit
    00:00 +9°C° 0 mm 1 m/S 634 mmHg 78%
    01:00 +9°C° 0 mm 1 m/S 633 mmHg 76%
    02:00 +9°C° 0 mm 1 m/S 633 mmHg 73%
    03:00 +9°C° 0 mm 1 m/S 633 mmHg 70%
    04:00 +10°C° 0 mm 1 m/S 633 mmHg 69%
    05:00 +9°C° 0 mm 2 m/S 633 mmHg 67%
    06:00 +10°C° 0 mm 2 m/S 634 mmHg 66%
    07:00 +13°C° 0,1 mm 2 m/S 634 mmHg 61%
    08:00 +15°C° 0,1 mm 2 m/S 635 mmHg 56%
    09:00 +17°C° 0,1 mm 2 m/S 636 mmHg 52%
    10:00 +18°C° 0,1 mm 3 m/S 636 mmHg 49%
    11:00 +19°C° 0,1 mm 4 m/S 636 mmHg 47%
    12:00 +20°C° 0,1 mm 4 m/S 636 mmHg 44%
    13:00 +20°C° 0 mm 5 m/S 636 mmHg 44%
    14:00 +20°C° 0 mm 5 m/S 635 mmHg 44%
    15:00 +20°C° 0 mm 5 m/S 635 mmHg 43%
    16:00 +19°C° 0 mm 4 m/S 634 mmHg 48%
    17:00 +17°C° 0 mm 4 m/S 634 mmHg 53%
    18:00 +16°C° 0 mm 3 m/S 633 mmHg 58%
    19:00 +13°C° 0 mm 3 m/S 633 mmHg 61%
    20:00 +12°C° 0 mm 2 m/S 632 mmHg 65%
    21:00 +9°C° 0 mm 2 m/S 632 mmHg 69%
    22:00 +9°C° 0 mm 2 m/S 632 mmHg 70%
    23:00 +8°C° 0 mm 2 m/S 632 mmHg 72%

    Morgen, 26 Mai, Samstag

    Zeit Temperatur Niederschläge Wind Luftdruck Luftfeuchtigkeit
    00:00 +8°C° 0 mm 2 m/S 632 mmHg 73%
    01:00 +8°C° 0 mm 2 m/S 631 mmHg 76%
    02:00 +8°C° 0 mm 2 m/S 631 mmHg 78%
    03:00 +8°C° 0 mm 2 m/S 631 mmHg 81%
    04:00 +9°C° 0 mm 2 m/S 632 mmHg 78%
    05:00 +9°C° 0 mm 2 m/S 632 mmHg 76%
    06:00 +10°C° 0 mm 2 m/S 633 mmHg 73%
    07:00 +13°C° 0 mm 2 m/S 633 mmHg 67%
    08:00 +14°C° 0 mm 3 m/S 634 mmHg 60%
    09:00 +17°C° 0 mm 3 m/S 635 mmHg 54%
    10:00 +18°C° 0 mm 3 m/S 635 mmHg 51%
    11:00 +19°C° 0 mm 4 m/S 635 mmHg 48%
    12:00 +20°C° 0 mm 4 m/S 636 mmHg 45%
    13:00 +20°C° 0 mm 4 m/S 636 mmHg 44%
    14:00 +20°C° 0 mm 4 m/S 635 mmHg 44%
    15:00 +20°C° 0 mm 4 m/S 635 mmHg 43%
    16:00 +19°C° 0 mm 4 m/S 635 mmHg 51%
    17:00 +18°C° 0 mm 3 m/S 635 mmHg 58%
    18:00 +16°C° 0 mm 3 m/S 634 mmHg 65%
    19:00 +15°C° 0,1 mm 2 m/S 634 mmHg 72%
    20:00 +13°C° 0,1 mm 2 m/S 634 mmHg 78%
    21:00 +11°C° 0,1 mm 1 m/S 633 mmHg 84%
    22:00 +11°C° 0 mm 1 m/S 633 mmHg 83%
    23:00 +11°C° 0 mm 1 m/S 633 mmHg 81%

    übermorgen, 27 Mai, Sonntag

    Zeit Temperatur Niederschläge Wind Luftdruck Luftfeuchtigkeit
    00:00 +10°C° 0 mm 1 m/S 633 mmHg 79%
    01:00 +10°C° 0 mm 1 m/S 633 mmHg 77%
    02:00 +10°C° 0 mm 1 m/S 632 mmHg 74%
    03:00 +10°C° 0 mm 1 m/S 632 mmHg 71%
    04:00 +10°C° 0 mm 1 m/S 632 mmHg 69%
    05:00 +11°C° 0 mm 1 m/S 633 mmHg 66%
    06:00 +12°C° 0 mm 1 m/S 633 mmHg 64%
    07:00 +14°C° 0 mm 1 m/S 634 mmHg 59%
    08:00 +16°C° 0 mm 1 m/S 635 mmHg 53%
    09:00 +18°C° 0 mm 2 m/S 636 mmHg 47%
    10:00 +19°C° 0,2 mm 2 m/S 636 mmHg 48%
    11:00 +19°C° 0,2 mm 2 m/S 636 mmHg 49%
    12:00 +20°C° 0,2 mm 3 m/S 636 mmHg 50%
    13:00 +19°C° 1,4 mm 2 m/S 636 mmHg 57%
    14:00 +18°C° 1,4 mm 2 m/S 635 mmHg 64%
    15:00 +17°C° 1,4 mm 2 m/S 635 mmHg 70%
    16:00 +16°C° 1,5 mm 2 m/S 634 mmHg 75%
    17:00 +15°C° 1,5 mm 2 m/S 634 mmHg 80%
    18:00 +14°C° 1,5 mm 1 m/S 634 mmHg 85%
    19:00 +13°C° 0,3 mm 1 m/S 633 mmHg 87%
    20:00 +12°C° 0,3 mm 1 m/S 633 mmHg 89%
    21:00 +11°C° 0,3 mm 1 m/S 633 mmHg 91%
    22:00 +10°C° 0 mm 1 m/S 633 mmHg 91%
    23:00 +10°C° 0 mm 1 m/S 633 mmHg 90%

    28 Mai, Montag

    Zeit Temperatur Niederschläge Wind Luftdruck Luftfeuchtigkeit
    00:00 +9°C° 0 mm 1 m/S 632 mmHg 90%
    01:00 +9°C° 0 mm 1 m/S 632 mmHg 88%
    02:00 +9°C° 0 mm 1 m/S 632 mmHg 86%
    03:00 +9°C° 0 mm 1 m/S 632 mmHg 84%
    04:00 +9°C° 0 mm 1 m/S 632 mmHg 82%
    05:00 +10°C° 0 mm 1 m/S 632 mmHg 80%
    06:00 +11°C° 0 mm 1 m/S 633 mmHg 77%
    07:00 +13°C° 0,1 mm 2 m/S 633 mmHg 72%
    08:00 +15°C° 0,1 mm 2 m/S 634 mmHg 67%
    09:00 +16°C° 0,1 mm 3 m/S 635 mmHg 62%
    10:00 +17°C° 0,9 mm 3 m/S 634 mmHg 63%
    11:00 +17°C° 0,9 mm 3 m/S 634 mmHg 65%
    12:00 +17°C° 0,9 mm 3 m/S 634 mmHg 66%
    13:00 +17°C° 1,2 mm 3 m/S 634 mmHg 69%
    14:00 +16°C° 1,2 mm 3 m/S 633 mmHg 71%
    15:00 +16°C° 1,2 mm 3 m/S 633 mmHg 74%
    16:00 +14°C° 0,9 mm 3 m/S 633 mmHg 77%
    17:00 +14°C° 0,9 mm 3 m/S 633 mmHg 81%
    18:00 +14°C° 0,9 mm 2 m/S 632 mmHg 84%
    19:00 +13°C° 0,4 mm 2 m/S 632 mmHg 87%
    20:00 +10°C° 0,4 mm 2 m/S 632 mmHg 90%
    21:00 +9°C° 0,4 mm 2 m/S 632 mmHg 93%
    22:00 +9°C° 0,2 mm 2 m/S 632 mmHg 93%
    23:00 +10°C° 0,2 mm 1 m/S 632 mmHg 92%

    29 Mai, Dienstag

    Zeit Temperatur Niederschläge Wind Luftdruck Luftfeuchtigkeit
    00:00 +9°C° 0,2 mm 1 m/S 631 mmHg 92%
    01:00 +9°C° 0,1 mm 1 m/S 631 mmHg 91%
    02:00 +9°C° 0,1 mm 1 m/S 631 mmHg 91%
    03:00 +9°C° 0,1 mm 1 m/S 631 mmHg 90%
    04:00 +9°C° 0 mm 1 m/S 631 mmHg 87%
    05:00 +10°C° 0 mm 1 m/S 631 mmHg 84%
    06:00 +11°C° 0 mm 1 m/S 632 mmHg 80%
    07:00 +13°C° 0 mm 1 m/S 633 mmHg 72%
    08:00 +15°C° 0 mm 2 m/S 633 mmHg 64%
    09:00 +17°C° 0 mm 2 m/S 634 mmHg 56%
    10:00 +17°C° 0,4 mm 2 m/S 634 mmHg 56%
    11:00 +18°C° 0,4 mm 3 m/S 634 mmHg 56%
    12:00 +18°C° 0,4 mm 3 m/S 635 mmHg 57%
    13:00 +18°C° 0,7 mm 3 m/S 634 mmHg 57%
    14:00 +18°C° 0,7 mm 3 m/S 634 mmHg 58%
    15:00 +18°C° 0,7 mm 3 m/S 634 mmHg 59%
    16:00 +17°C° 0,7 mm 2 m/S 634 mmHg 64%
    17:00 +16°C° 0,7 mm 2 m/S 633 mmHg 68%
    18:00 +15°C° 0,7 mm 2 m/S 633 mmHg 73%
    19:00 +14°C° 0,3 mm 1 m/S 633 mmHg 79%
    20:00 +12°C° 0,3 mm 1 m/S 632 mmHg 85%
    21:00 +10°C° 0,3 mm 1 m/S 632 mmHg 90%
    22:00 +10°C° 0,1 mm 1 m/S 632 mmHg 91%
    23:00 +9°C° 0,1 mm 1 m/S 632 mmHg 91%

    30 Mai, Mittwoch

    Zeit Temperatur Niederschläge Wind Luftdruck Luftfeuchtigkeit
    00:00 +9°C° 0,1 mm 1 m/S 632 mmHg 92%
    01:00 +9°C° 0 mm 1 m/S 632 mmHg 92%
    02:00 +9°C° 0 mm 1 m/S 632 mmHg 92%
    03:00 +9°C° 0 mm 1 m/S 631 mmHg 92%
    04:00 +9°C° 0 mm 1 m/S 632 mmHg 90%
    05:00 +10°C° 0 mm 1 m/S 632 mmHg 89%
    06:00 +11°C° 0 mm 1 m/S 633 mmHg 87%
    07:00 +12°C° 0 mm 1 m/S 633 mmHg 78%
    08:00 +13°C° 0 mm 2 m/S 634 mmHg 68%
    09:00 +15°C° 0 mm 2 m/S 635 mmHg 58%
    10:00 +15°C° 0,1 mm 2 m/S 635 mmHg 57%
    11:00 +16°C° 0,1 mm 2 m/S 635 mmHg 56%
    12:00 +16°C° 0,1 mm 2 m/S 635 mmHg 55%
    13:00 +16°C° 0,4 mm 2 m/S 635 mmHg 57%
    14:00 +16°C° 0,4 mm 2 m/S 635 mmHg 59%
    15:00 +17°C° 0,4 mm 2 m/S 635 mmHg 61%
    16:00 +15°C° 0,7 mm 2 m/S 634 mmHg 67%
    17:00 +14°C° 0,7 mm 2 m/S 634 mmHg 74%
    18:00 +13°C° 0,7 mm 1 m/S 634 mmHg 81%
    19:00 +12°C° 0,7 mm 1 m/S 634 mmHg 85%
    20:00 +11°C° 0,7 mm 1 m/S 634 mmHg 88%
    21:00 +10°C° 0,7 mm 1 m/S 634 mmHg 92%
    22:00 +10°C° 0,3 mm 1 m/S 634 mmHg 93%
    23:00 +9°C° 0,3 mm 1 m/S 634 mmHg 93%
    Mehr zeigen